SGDC (42692 NORAD) Tracking and Keplerian Element Data

This shows tracking and keplerian element data for the satellite.

Feedback or suggestion? Click here.




ElementValue
Catalog42692
NameSGDC
Epoch Orbit596
Epoch Day348.97571398
Epoch Year2018
RAAN27.6464
Inclination0.0119
Eccentricity0.0002087
Argument of Perigee224.9804
Mean Anonmoly107.3642
Mean Motion1.00273446
Decay Rate-2.38E-06
L11 42692U 17023B 18348.97571398 -.00000238 00000-0 00000+0 0 9992
L22 42692 0.0119 27.6464 0002087 224.9804 107.3642 1.00273446 5961

Live tracking and technical data element details for SGDC (NORAD 42692). SGDC can be tracked NOW for your location showing map with azimuth and elevation plus other details from your city location.

Track the satellite on the map from your city or location and see movement details for azimuth, elevation, latitude, longitude, range, height, and movement on the map or in text.







IsCatalogInMostPopularTable: catalog: 42692, numindb: 138
Update: records affected: 1



GetName: 42692 SGDC

Hit Count: updated at: Sun, 16 Dec 2018 11:45:34 GMT